SL-8 DEB, 1477

Orbit data source: Space-Track

SL-8 DEB, 1477 is space debris in LEO originally from a launch on Mon, 15 Mar 1965 UTC launched from the Tyuratam Missile And Space Complex (TTMTR). Debris objects in space refer to the collection of defunct objects orbiting the Earth. Examples of debris include non-operational satellites, rocket bodies, and fragments generated from explosions, collisions, or faulty payload assembly.

Loading next visibility...
Identifier
1477, 1965-020BB
Orbit
LEO
Country
Flag of CISCIS
Related business
Manufacturer
Unknown
Mission
Spacecraft
Bus & Motor
Unknown
Mass
Unknown
Launch date (UTC)
1965-03-15 (61 years ago)
Launch vehicle
Unknown
Launch site
Tyuratam Missile And Space Complex (TTMTR)
Object type
Payload
Rocket body
Debris
Shape & HBR
Unknown shape, 0.2 m
Radar Cross Section
Medium (>0.1 m² and <1 m²)

Expand to show TLE details & history
Last TLE update: 5 hours ago

TLE from 5 hours ago
0 SL-8 DEB
1 01477U 65020BB  26101.25013860  .00000266  00000-0  55654-3 0  9999
2 01477  55.4921  91.3260 0588753 214.7358 141.3770 12.99642112869513
Epoch: 2026-04-11T06:00Z
TLE epoch observation values (Epoch: 2026-04-11T06:00:11.975Z)
Latitude
0.00005°
Longitude
161.80399°
Altitude
1,625.652 km
Speed
6.89 km/s
True Right ascension
06h 05m 18s
True Declination
0° 00' 00"
Sunlit
Object was in daylight at epoch
Visualization orbit readout
Latitude
Unknown
Longitude
Unknown
Altitude
Unknown
Speed
Unknown
Apparent Right ascension
Unknown
Apparent Declination
Unknown
Sunlit
N/A
Visualization observer readout
Local Sidereal Time
17:44:27
Azimuth
Unknown
Elevation
Unknown
Doppler factor
Unknown
Orbital elements
Apogee altitude
1,713.287 km
Perigee altitude
813.493 km
Semi-major axis
7,641.527 km
Eccentricity
0.05888
Inclination
55.4921°
RAAN
91.326°
Arg. of periapsis
214.7358°
True anomaly
145.35559°
Mean anomaly
141.377°
Eccentric anomaly
143.38878°
Mean motion
3.24917 °/min
Orbital period
110.8 mins
BSTAR
0.00055654
Loading maneuver chart data...
Computing Atmospheric mass density...

Documentation

Showing up to 5 results
|